Погода в Чавине

Вьетнам     9°56′11″N   106°20′31″E
темп.,
°C
ветер,
м/с
пор.,
м/с
влажн.,
%
обл.,
%
осадки,
мм/ч
давл.,
гПа
погр.,
м
8 марта, пн
пн801:00+25вюв4118137 0.0 1013885
04:00+24вюв3108122 0.0 1012770
07:00+25в3107655 0.0 10141025
10:00+32в7114415 0.0 10151654
13:00+35в79339 0.0 10112074
16:00+32в784432 0.0 10091239
19:00+26вюв5127066 0.0 1010660
22:00+26вюв5136921 0.0 1013766
9 марта, вт
вт901:00+26вюв5137020 0.0 1012818
04:00+25в412740 0.0 1011832
07:00+26в411709 0.0 1013894
10:00+33всв69370 0.0 10151562
13:00+36в78291 0.0 10112382
16:00+33в78390 0.0 10091282
19:00+26вюв512710 0.0 1011647
22:00+26в613700 0.0 1013692
10 марта, ср
ср1001:00+26вюв513700 0.0 1012716
04:00+26вюв513700 0.0 1010724
07:00+25всв310720 0.0 1013722
10:00+33всв59390 0.0 10141539
13:00+37в67251 0.0 10112468
16:00+34вюв77360 0.0 10081100
19:00+26вюв513740 0.0 1010642
22:00+26в513731 0.0 1013791
11 марта, чт
чт1101:00+26в5137312 0.0 1012855
04:00+26в51275100 0.0 1011776
07:00+26в5117088 0.0 1013960
10:00+33всв6103668 0.0 10131528
13:00+36в672869 0.0 10102248
16:00+32в79429 0.0 10081238
19:00+26в513704 0.0 1010690
22:00+26в714720 0.0 1012703
12 марта, пт
пт1201:00+26в5137325 0.0 1011805
04:00+25в412710 0.0 1010808
07:00+26всв411666 0.0 1012960
10:00+33всв610330 0.0 10131578
13:00+35вюв672618 0.0 10101910
16:00+33вюв7939100 0.0 10081217
19:00+26в51370100 0.0 1010591
22:00+26в61373100 0.0 1012677